Meath Environmental Platform

Observations for Trim Market St

Time AQI Temp °C Hum % Pres Pa CO μg/m³ H₂S μg/m³ NO μg/m³ NO₂ μg/m³ O₃ μg/m³ SO₂ μg/m³ PM1 μg/m³ PM2.5 μg/m³ PM10 μg/m³
Saturday 22 August 2026
07:04 2 11.3 76 43,744 0.54 0 3.45 13.2 38.79 0 1.43 2.77 5.17
07:03 2 11.3 76 43,574 0.53 0 3.67 13.2 39.51 0 2.14 4.2 8.71
07:02 2 11.3 76 43,484 0.52 0 3.93 13.85 39.02 0 2.14 3.73 6.35
07:01 2 11.2 76 43,491 0.53 0 4.35 13.38 38.75 0 1.43 2.77 6.35
07:00 2 11.1 76 43,579 0.51 0 4.54 13.22 38.35 0 2.14 3.73 7.53
06:59 2 11.1 76 43,657 0.5 0 4.84 13.11 38.72 0 2.14 3.25 7.53
06:58 2 11 76 43,824 0.5 0 4.6 12.79 38.31 0 2.14 3.25 5.76
06:57 2 10.9 76 44,001 0.49 0 4.66 13.22 39.75 0 1.43 2.78 5.76
06:56 2 10.9 76 44,193 0.49 0 4.22 11.31 42.71 0 1.43 3.25 5.76
06:54 2 10.8 76 44,425 0.49 0 4.54 13.17 33.93 0 2.14 4.21 6.94
06:53 2 10.8 76 44,607 0.47 0 4.54 12.46 36.37 0 2.14 3.73 7.53
06:48 2 10.7 76 45,613 0.46 0 3.57 12.06 34.89 0 0.71 3.26 5.75
06:41 2 10.7 76 47,000 0.46 0 4.15 9.46 39.17 0 2.14 4.22 9.31
06:39 2 10.7 76 47,090 0.46 0 5.08 11.03 35.75 0 1.43 4.22 7.53
06:38 2 10.7 76 47,136 0.46 0 4.74 11 35.63 0 2.14 3.27 6.34
06:37 2 10.7 76 47,171 0.46 0 5.34 11.03 35.81 0 2.14 3.27 5.75
06:36 2 10.7 76 47,200 0.47 0 4.84 10.99 35.7 0 2.14 4.71 8.12
06:33 2 10.8 76 47,218 0.47 0 3.61 11.29 36.38 0 2.85 4.71 8.12
06:32 2 10.8 76 47,207 0.48 0 3.92 11.46 36.86 0 2.14 4.23 6.94
06:31 2 10.8 75 47,195 0.48 0 4.68 10.83 37.76 0 1.43 3.28 6.34